| time (UTC) | temp F | wind direction | speed MPH | gust MPH | rain 1hr in | rain 24hr in | rain mn in | humidity % | barometer mb |
| 20260906204559 | 70 | 340 | 0.0 | 1.0 | 0.00 | 0.00 | 0.00 | 56 | 1009.8 |
| 20260906203058 | 71 | 313 | 0.0 | 4.0 | 0.00 | 0.00 | 0.00 | 55 | 1009.7 |
| 20260906201556 | 71 | 307 | 0.0 | 0.0 | 0.00 | 0.00 | 0.00 | 54 | 1009.8 |
| 20260906200057 | 71 | 15 | 0.0 | 1.0 | 0.00 | 0.00 | 0.00 | 54 | 1009.8 |
| 20260906194553 | 71 | 329 | 0.0 | 0.0 | 0.00 | 0.00 | 0.00 | 56 | 1009.9 |
| 20260906193051 | 71 | 24 | 0.0 | 0.0 | 0.00 | 0.00 | 0.00 | 58 | 1009.9 |
| 20260906191548 | 69 | 215 | 0.0 | 8.0 | 0.00 | 0.00 | 0.00 | 62 | 1010.1 |
| 20260906190046 | 68 | 323 | 0.0 | 0.0 | 0.00 | 0.00 | 0.00 | 61 | 1010.3 |
| 20260906184542 | 67 | 319 | 0.0 | 0.0 | 0.00 | 0.00 | 0.00 | 63 | 1010.5 |
| 20260906183041 | 67 | 336 | 0.0 | 0.0 | 0.00 | 0.00 | 0.00 | 65 | 1010.4 |
| 20260906181541 | 66 | 314 | 0.0 | 1.0 | 0.00 | 0.00 | 0.00 | 65 | 1010.4 |
| 20260906180035 | 65 | 339 | 0.0 | 0.0 | 0.00 | 0.00 | 0.00 | 68 | 1010.5 |
| 20260906174533 | 64 | 329 | 0.0 | 0.0 | 0.00 | 0.00 | 0.00 | 69 | 1010.5 |
| 20260906173030 | 64 | 150 | 0.0 | 0.0 | 0.00 | 0.00 | 0.00 | 73 | 1010.4 |
| 20260906171526 | 62 | 74 | 0.0 | 0.0 | 0.00 | 0.00 | 0.00 | 79 | 1010.4 |
| 20260906170022 | 60 | 17 | 0.0 | 0.0 | 0.00 | 0.00 | 0.00 | 82 | 1010.3 |
| 20260906164517 | 58 | 181 | 0.0 | 0.0 | 0.00 | 0.00 | 0.00 | 86 | 1010.4 |
| 20260906163020 | 58 | 12 | 0.0 | 0.0 | 0.00 | 0.00 | 0.00 | 90 | 1010.2 |
| 20260906161511 | 56 | 63 | 0.0 | 0.0 | 0.00 | 0.00 | 0.00 | 94 | 1010.3 |
| 20260906160022 | 55 | 78 | 0.0 | 0.0 | 0.00 | 0.00 | 0.00 | 95 | 1010.4 |
| 20260906154506 | 54 | 88 | 0.0 | 0.0 | 0.00 | 0.00 | 0.00 | 96 | 1010.4 |
| 20260906153006 | 53 | 88 | 0.0 | 0.0 | 0.00 | 0.00 | 0.00 | 95 | 1010.3 |
| 20260906151505 | 52 | 338 | 0.0 | 0.0 | 0.00 | 0.00 | 0.00 | 95 | 1010.2 |
| 20260906150007 | 52 | 5 | 0.0 | 0.0 | 0.00 | 0.00 | 0.00 | 96 | 1010.1 |
| 20260906144502 | 52 | 29 | 0.0 | 0.0 | 0.00 | 0.00 | 0.00 | 96 | 1010.0 |
| 20260906143114 | 52 | 30 | 0.0 | 0.0 | 0.00 | 0.00 | 0.00 | 95 | 1009.8 |
| 20260906141602 | 52 | 72 | 0.0 | 0.0 | 0.00 | 0.00 | 0.00 | 95 | 1009.7 |
| 20260906134556 | 52 | 343 | 0.0 | 0.0 | 0.00 | 0.00 | 0.00 | 95 | 1009.6 |
| 20260906133104 | 52 | 51 | 0.0 | 0.0 | 0.00 | 0.00 | 0.00 | 95 | 1009.5 |
| 20260906131559 | 52 | 51 | 0.0 | 0.0 | 0.00 | 0.00 | 0.00 | 95 | 1009.3 |
| 20260906130055 | 52 | 51 | 0.0 | 0.0 | 0.00 | 0.00 | 0.00 | 95 | 1009.3 |
| 20260906124553 | 52 | 334 | 0.0 | 0.0 | 0.00 | 0.00 | 0.00 | 95 | 1009.3 |
| 20260906123051 | 52 | 334 | 0.0 | 0.0 | 0.00 | 0.00 | 0.00 | 95 | 1009.3 |
| 20260906121551 | 52 | 334 | 0.0 | 0.0 | 0.00 | 0.00 | 0.00 | 95 | 1009.3 |
| 20260906120050 | 53 | 334 | 0.0 | 0.0 | 0.00 | 0.00 | 0.00 | 95 | 1009.1 |
| 20260906114550 | 53 | 334 | 0.0 | 0.0 | 0.00 | 0.00 | 0.00 | 95 | 1009.0 |
| 20260906113050 | 53 | 40 | 0.0 | 0.0 | 0.00 | 0.00 | 0.00 | 95 | 1009.0 |
| 20260906111547 | 53 | 133 | 0.0 | 0.0 | 0.00 | 0.00 | 0.00 | 95 | 1009.0 |
| 20260906110046 | 53 | 134 | 0.0 | 0.0 | 0.00 | 0.00 | 0.00 | 95 | 1008.9 |
| 20260906104543 | 53 | 134 | 0.0 | 0.0 | 0.00 | 0.01 | 0.00 | 95 | 1009.0 |
| 20260906103043 | 53 | 133 | 0.0 | 0.0 | 0.00 | 0.01 | 0.00 | 94 | 1009.0 |
| 20260906101542 | 53 | 134 | 0.0 | 0.0 | 0.00 | 0.01 | 0.00 | 94 | 1009.1 |
| 20260906100040 | 53 | 133 | 0.0 | 0.0 | 0.00 | 0.01 | 0.00 | 94 | 1009.1 |
| 20260906094539 | 53 | 134 | 0.0 | 0.0 | 0.00 | 0.01 | 0.00 | 94 | 1009.1 |
| 20260906093038 | 54 | 134 | 0.0 | 0.0 | 0.00 | 0.01 | 0.00 | 94 | 1009.1 |
| 20260906091536 | 54 | 133 | 0.0 | 0.0 | 0.00 | 0.01 | 0.00 | 94 | 1009.1 |
| 20260906090035 | 54 | 134 | 0.0 | 0.0 | 0.00 | 0.01 | 0.00 | 94 | 1009.2 |
| 20260906084533 | 54 | 134 | 0.0 | 0.0 | 0.00 | 0.01 | 0.00 | 94 | 1009.2 |
| 20260906083039 | 54 | 134 | 0.0 | 0.0 | 0.00 | 0.01 | 0.00 | 94 | 1009.3 |
| 20260906081536 | 55 | 170 | 0.0 | 0.0 | 0.00 | 0.01 | 0.00 | 94 | 1009.3 |
| 20260906080030 | 55 | 155 | 0.0 | 0.0 | 0.00 | 0.01 | 0.00 | 94 | 1009.3 |
| 20260906074528 | 55 | 155 | 0.0 | 0.0 | 0.00 | 0.01 | 0.00 | 94 | 1009.4 |
| 20260906073027 | 55 | 198 | 0.0 | 0.0 | 0.00 | 0.01 | 0.00 | 94 | 1009.4 |
| 20260906071526 | 55 | 217 | 0.0 | 0.0 | 0.00 | 0.01 | 0.00 | 94 | 1009.4 |
| 20260906070025 | 55 | 217 | 0.0 | 0.0 | 0.00 | 0.01 | 0.00 | 94 | 1009.4 |
| 20260906064533 | 55 | 240 | 0.0 | 0.0 | 0.00 | 0.01 | 0.01 | 94 | 1009.5 |
| 20260906063024 | 55 | 240 | 0.0 | 0.0 | 0.00 | 0.01 | 0.01 | 94 | 1009.6 |
| 20260906061523 | 55 | 240 | 0.0 | 0.0 | 0.00 | 0.01 | 0.01 | 93 | 1009.6 |
| 20260906060027 | 55 | 240 | 0.0 | 0.0 | 0.00 | 0.01 | 0.01 | 93 | 1009.9 |
| 20260906054522 | 55 | 265 | 0.0 | 0.0 | 0.00 | 0.01 | 0.01 | 93 | 1009.9 |
| 20260906053027 | 55 | 167 | 0.0 | 0.0 | 0.00 | 0.01 | 0.01 | 93 | 1010.1 |
| 20260906051530 | 55 | 220 | 0.0 | 0.0 | 0.00 | 0.01 | 0.01 | 92 | 1010.1 |
| 20260906050046 | 55 | 197 | 0.0 | 0.0 | 0.00 | 0.01 | 0.01 | 92 | 1010.2 |
| 20260906044520 | 55 | 197 | 0.0 | 0.0 | 0.00 | 0.01 | 0.01 | 91 | 1010.2 |
| 20260906043020 | 55 | 197 | 0.0 | 0.0 | 0.00 | 0.01 | 0.01 | 91 | 1010.1 |
| 20260906041519 | 55 | 198 | 0.0 | 0.0 | 0.00 | 0.01 | 0.01 | 89 | 1010.0 |
| 20260906040018 | 56 | 197 | 0.0 | 0.0 | 0.00 | 0.01 | 0.01 | 89 | 1010.0 |
| 20260906034523 | 56 | 198 | 0.0 | 0.0 | 0.00 | 0.01 | 0.01 | 88 | 1009.8 |
| 20260906033024 | 57 | 197 | 0.0 | 0.0 | 0.00 | 0.01 | 0.01 | 86 | 1009.6 |
| 20260906031519 | 58 | 197 | 0.0 | 0.0 | 0.00 | 0.01 | 0.01 | 84 | 1009.4 |
| 20260906030018 | 59 | 197 | 0.0 | 0.0 | 0.00 | 0.01 | 0.01 | 82 | 1009.3 |
| 20260906024515 | 61 | 197 | 0.0 | 0.0 | 0.00 | 0.01 | 0.01 | 79 | 1009.2 |
| 20260906023016 | 63 | 197 | 0.0 | 0.0 | 0.00 | 0.01 | 0.01 | 75 | 1009.2 |
| 20260906021516 | 64 | 258 | 0.0 | 0.0 | 0.00 | 0.01 | 0.01 | 73 | 1009.2 |
| 20260906020012 | 64 | 304 | 0.0 | 0.0 | 0.00 | 0.01 | 0.01 | 70 | 1009.3 |
| 20260906014511 | 66 | 355 | 0.0 | 0.0 | 0.00 | 0.01 | 0.01 | 66 | 1009.3 |
| 20260906013012 | 68 | 252 | 0.0 | 0.0 | 0.00 | 0.01 | 0.01 | 63 | 1009.2 |
| 20260906011510 | 68 | 340 | 0.0 | 0.0 | 0.00 | 0.01 | 0.01 | 60 | 1009.2 |
| 20260906010010 | 69 | 15 | 0.0 | 0.0 | 0.00 | 0.01 | 0.01 | 58 | 1009.1 |
| 20260906004507 | 70 | 15 | 0.0 | 0.0 | 0.00 | 0.01 | 0.01 | 60 | 1009.1 |
| 20260906003006 | 71 | 355 | 0.0 | 0.0 | 0.00 | 0.01 | 0.01 | 57 | 1009.1 |
| 20260906001604 | 72 | 241 | 0.0 | 0.0 | 0.00 | 0.01 | 0.01 | 57 | 1009.1 |
| 20260906000006 | 72 | 214 | 0.0 | 0.0 | 0.00 | 0.01 | 0.01 | 57 | 1009.0 |
| 20260905234504 | 71 | 255 | 0.0 | 0.0 | 0.00 | 0.01 | 0.01 | 56 | 1009.1 |
| 20260905233002 | 71 | 213 | 0.0 | 0.0 | 0.00 | 0.01 | 0.01 | 57 | 1009.0 |
| 20260905231502 | 71 | 244 | 0.0 | 0.0 | 0.00 | 0.01 | 0.01 | 59 | 1009.2 |
| 20260905230001 | 72 | 202 | 0.0 | 0.0 | 0.00 | 0.01 | 0.01 | 59 | 1009.3 |
| 20260905224606 | 74 | 233 | 0.0 | 0.0 | 0.00 | 0.01 | 0.01 | 59 | 1009.3 |
| 20260905223059 | 74 | 169 | 0.0 | 0.0 | 0.00 | 0.01 | 0.01 | 58 | 1009.4 |
| 20260905221600 | 75 | 261 | 0.0 | 0.0 | 0.00 | 0.01 | 0.01 | 57 | 1009.4 |
| 20260905220057 | 75 | 213 | 0.0 | 0.0 | 0.00 | 0.01 | 0.01 | 58 | 1009.3 |
| 20260905214605 | 75 | 217 | 0.0 | 0.0 | 0.00 | 0.01 | 0.01 | 56 | 1009.3 |
| 20260905213053 | 75 | 241 | 0.0 | 4.0 | 0.00 | 0.01 | 0.01 | 56 | 1009.2 |
| 20260905211551 | 75 | 261 | 0.0 | 6.0 | 0.00 | 0.01 | 0.01 | 58 | 1009.2 |
| 20260905210050 | 75 | 286 | 0.0 | 7.0 | 0.00 | 0.01 | 0.01 | 58 | 1009.2 |